Change the Weather History Date:

Sunday, November 18, 2012

  Actual Average Record
Temperature  
Mean Temperature 67 °F -  
Max Temperature 73 °F 78 °F 85 °F (1958)
Min Temperature 61 °F 62 °F 38 °F (1951)
Cooling Degree Days 2    
Growing Degree Days 17 (Base 50)    
Moisture  
Dew Point 58 °F    
Average Humidity 78    
Maximum Humidity 90    
Minimum Humidity 61    
Precipitation  
Precipitation 0.00 in - - ()
Sea Level Pressure  
Sea Level Pressure 30.16 in    
Wind  
Wind Speed 11 mph (NE)    
Max Wind Speed 14 mph    
Max Gust Speed 20 mph    
Visibility 10 miles    
Events      
Averages and records for this station are not official NWS values.
T = Trace of Precipitation, MM = Missing Value Source: NWS Daily Summary

Daily Weather History Graph

Daily Weather History Graph

Search for Another Location

Airport or City:

Trip Planner

Search our weather history database for the weather conditions in past years. The results will help you decide how hot, cold, wet, or windy it might be!

Date:

Astronomy

Nov. 18, 2012 Rise Set
Actual Time 6:54 AM EST 5:36 PM EST
Civil Twilight 6:29 AM EST 6:01 PM EST
Nautical Twilight 6:01 AM EST 6:30 PM EST
Astronomical Twilight 5:33 AM EST 6:58 PM EST
Moon 11:26 AM EST (11/18) 10:47 PM EST (11/18)
Length of Visible Light 11h 31m
Length of Day
10h 42m
Waxing Crescent, 30% of the Moon is Illuminated
Nov 18
Waxing Crescent
Nov 20
First Quarter
Nov 28
Full
Dec 6
Last Quarter
Dec 13
New

Hourly Weather History & Observations

Time (EST) Temp. Dew Point Humidity Pressure Visibility Wind Dir Wind Speed Gust Speed Precip Events Conditions
12:14 AM 62.6 °F 59.0 °F 88% 30.15 in 10.0 mi NE 12.7 mph - N/A   Mostly Cloudy
12:53 AM 63.0 °F 59.0 °F 87% 30.14 in 10.0 mi NE 12.7 mph 19.6 mph N/A   Mostly Cloudy
1:53 AM 63.0 °F 59.0 °F 87% 30.14 in 10.0 mi NE 11.5 mph - N/A   Overcast
2:53 AM 63.0 °F 59.0 °F 87% 30.13 in 10.0 mi NE 11.5 mph - N/A   Overcast
3:53 AM 62.1 °F 57.9 °F 86% 30.13 in 10.0 mi NE 9.2 mph - N/A   Overcast
4:53 AM 62.1 °F 57.9 °F 86% 30.14 in 10.0 mi NE 11.5 mph - N/A   Overcast
5:22 AM 62.6 °F 57.2 °F 82% 30.14 in 10.0 mi NE 11.5 mph - N/A   Overcast
5:53 AM 62.1 °F 57.9 °F 86% 30.15 in 10.0 mi NE 10.4 mph 19.6 mph N/A   Overcast
6:53 AM 62.1 °F 57.9 °F 86% 30.16 in 10.0 mi NE 11.5 mph - N/A   Overcast
7:53 AM 61.0 °F 57.9 °F 90% 30.17 in 10.0 mi NE 13.8 mph 19.6 mph N/A   Overcast
8:53 AM 62.1 °F 57.9 °F 86% 30.18 in 10.0 mi NE 10.4 mph - N/A   Overcast
9:53 AM 63.0 °F 57.0 °F 81% 30.20 in 10.0 mi NE 12.7 mph 19.6 mph N/A   Overcast
10:53 AM 64.9 °F 57.0 °F 75% 30.20 in 10.0 mi ENE 9.2 mph - N/A   Overcast
11:53 AM 66.9 °F 57.9 °F 73% 30.18 in 10.0 mi ENE 8.1 mph - N/A   Clear
12:53 PM 69.1 °F 57.9 °F 68% 30.16 in 10.0 mi ENE 8.1 mph - N/A   Clear
1:53 PM 71.1 °F 59.0 °F 66% 30.14 in 10.0 mi North 6.9 mph - N/A   Clear
2:53 PM 73.0 °F 59.0 °F 61% 30.13 in 10.0 mi NNE 6.9 mph - N/A   Clear
3:53 PM 72.0 °F 57.9 °F 61% 30.13 in 10.0 mi NNE 6.9 mph - N/A   Clear
4:53 PM 71.1 °F 57.9 °F 63% 30.14 in 10.0 mi North 8.1 mph - N/A   Clear
5:53 PM 68.0 °F 57.0 °F 68% 30.15 in 10.0 mi NNE 11.5 mph - N/A   Clear
6:53 PM 66.0 °F 57.0 °F 73% 30.17 in 10.0 mi NNE 10.4 mph - N/A   Clear
7:53 PM 64.9 °F 57.0 °F 75% 30.18 in 10.0 mi NE 10.4 mph - N/A   Clear
8:53 PM 64.0 °F 57.0 °F 78% 30.19 in 10.0 mi NE 12.7 mph - N/A   Clear
9:53 PM 63.0 °F 55.0 °F 75% 30.19 in 10.0 mi NE 9.2 mph - N/A   Clear
10:53 PM 62.1 °F 55.0 °F 78% 30.19 in 10.0 mi NE 8.1 mph - N/A   Clear
11:53 PM 62.1 °F 55.0 °F 78% 30.18 in 10.0 mi NE 8.1 mph - N/A   Clear